Погода Могилёв-Подольский

Погода Могилёв-Подольский : погода сейчас, прогноз погоды и архив. Всё, что Вы хотите узнать о погоде Могилёв-Подольский!

Хотите узнать прогноз погоды Могилёв-Подольский? Тогда Вам сюда: Погода Могилёв-Подольский

Поиск расширенной информации на нашем сайте:

Другие новости

Новости СМИ2

Главная страница сайта

Новости сайта

03.07.2017

Напоминаем, что на нашем специализированном сайте Метеоцентр.Азия вы можете получить высокодетализированные автоматические прогнозы погоды по пунктам России, СНГ и мира в авиационном формате (включающие направление и скорость ветра, видимость, явления погоды, количество и форму облачности, нижнюю и верхнюю границу облачности).


Погода Могилёв-Подольский - сегодня

Время (UTC), дата Ветер
(°,м/с) 
Видим.   Явления Облачность Т
(°С)
Тd
(°С)
f(%) Тe
(°С)
Pmin
(гПа)
dP
(гПа)
Po
(мм)
O2
(г/м3)
Тmin Tmax R s Состояние
почвы
15 20.04.18 350 (С) 20000 м    6/4 600 м средняя, верхняя 
[Cu med, cong|Ac trans|Ci fib]
+18.6 +1.3 31 +19  1021.2  -0.5  759  286           
18 20.04.18 340 (С) 10 км    3/0 верхняя 
[Ci fib]
+14.6 +4 49 +16  1021.3  759  290    +19.5       
21 20.04.18 тихо ()   10 км    ясно 
+7.6 +4.1 78 +8  1022.3  0.8  760  297           
00 21.04.18 тихо ()   10 км    ясно 
+4.6 +2.6 87 +5  1022.4             
03 21.04.18 тихо ()   10 км    ясно 
+3 +1.4 89 +3  1021.8  -0.7  759  302           
06 21.04.18 тихо ()   20000 м    ясно 
+7.6 +3.6 76 +8  1020.9  -0.7  758  297  +2.1         
09 21.04.18 290 (З) 20000 м    ясно 
+20.6 +5.8 38 +21  1018  -2.5  757  283           
12 21.04.18 290 (З) 20000 м    ясно 
+24.3 +2.1 23 +24  1014.3  -3.5  754  279           
15 21.04.18 270 (З) 20000 м    ясно 
+25.6 +2.5 22 +26  1010.9  -3.3  752  276           
18 21.04.18 310 (СЗ) 10 км    3/1 1000 м верхняя 
[Sc|Ci fib]
+21.9 +5.5 34 +22  1009.8  -1.2  751  279    +26.2       
21 21.04.18 310 (СЗ) 10 км    4/4 600 м 
[Sc]
+15.7 +7.7 59 +17  1010.5  0.5  751  285           
00 22.04.18 320 (СЗ) 10 км    ясно 
+15.3 +7.7 60 +16  1012.3  1.7  752  286           
03 22.04.18 тихо ()   10 км    ясно 
+9.6 +5.5 76 +10  1013.6  1.1  753  292           
06 22.04.18 360 (С) 20000 м    4/0 средняя 
[Ac trans]
+14.3 +3.6 49 +14  1014.7  1.3  754  288  +9.2         
09 22.04.18 340 (С) 20000 м    ясно 
+20 +0.6 27 +20  1014.3  -0.3  754  283           
12 22.04.18 310 (СЗ) 20000 м    ясно 
+22 -1.7 20 +22  1013.2  -1  753  281           
15 22.04.18 360 (С) 20000 м    ясно 
+21.9 -4.7 16 +22  1012.4  -0.8  752  281           
18 22.04.18 тихо ()   10 км    3/0 верхняя 
[Ci fib]
+14.8 +2.5 43 +15  1012.9  0.3  753  287    +22.6       
21 22.04.18 тихо ()   10 км    3/0 верхняя 
[Ci fib]
+7.2 +1.5 67 +7  1014.3  1.1  754  296           
00 23.04.18 тихо ()   10 км    ясно 
+4.1 +1 80 +4  1015  0.6  754  299           
03 23.04.18 310 (СЗ) 10 км    3/3 600 м 
[Sc]
+2 +0.1 87 +3  1015.1  754  302           
06 23.04.18 340 (С) 20000 м    3/0 верхняя 
[Ci fib]
+7.6 +2.5 70 +9  1015.2  0.3  754  295  +1.6         
09 23.04.18 330 (СЗ) 20000 м    ясно 
+20.8 +2.1 29 +21  1014.5  -0.2  754  282           
12 23.04.18 220 (ЮЗ) 20000 м    6/0 верхняя 
[Ci fib]
+22.4 +1.7 25 +22  1014.2  -0.3  754  280           
15 23.04.18 280 (З) 20000 м    8/0 верхняя 
[Ci]
+22.5 +0.2 23 +23  1012.7  -1.5  753  280           
Время (UTC), дата Ветер
(°,м/с) 
Видим.   Явления Облачность Т
(°С)
Тd
(°С)
f(%) Тe
(°С)
Pmin
(гПа)
dP
(гПа)
Po
(мм)
O2
(г/м3)
Тmin Tmax R s Состояние
почвы

Для получения пояснительной информации подведите курсор к названию столбца.

ПОГОДА Могилёв-Подольский - архив

Всё, что Вы хотите узнать о погоде Могилёв-Подольский - удобно и подробно!

Выберите нужную дату (начиная с 1 января 2015* года) и нажмите кнопку "Найти".
Будут отображены архивные сводки погоды по пункту Могилёв-Подольский, начиная с указанной даты.


Отображать данные в формате CSV (для использования в таблицах Excel)


Внимание! Наш архив погоды предназначен исключительно для личного некоммерческого использования в познавательных целях. Если Вам необходимы официальные справки о состоянии погоды (для производственных, юридических, коммерческих и т.п. целей), обращайтесь в органы Росгидромета.

*Примечание: данная дата относится к архиву по метеостанциям СССР (Россия, СНГ, Балтия).
Архив по метеостанциям Зарубежной Европы и Азии (кроме Китая) хранится 10 дней, по другим регионам земного шара (Китай, Африка, Америка, Австралия, Океания) - 1 день.

Могилёв-Подольский - район местоположения метеостанции


Название, широта, долгота, высота метеостанции:
Могилёв-Подольский 48.4°ш. 27.8°д. 78 м над ур. моря [Украина]

Дополнительная информация

В oтличие oт бoльшинства пoгoдных сайтoв мы публикуем пoдрoбную метеoинфoрмацию в детальнoм прoфессиoнальнoм фoрмате.

Характеристики температуры и влажнoсти вoздуха измеряются на высoте 2 м в тени вдали oт зданий и деревьев.
Скoрoсть ветра измеряется на высoте 10 м (на урoвне рoста челoвека скoрoсть ветра ниже в 1.5-2 раза). Если метеoстанция нахoдится в гoрoде или в лесу, тo скoрoсть ветра занижена на 2-4 м/с пo сравнению с oткрытым местoм. Скoрoсть ветра над акватoриями крупных рек и oзёр, а также на вершинах хoлмoв на 2-5 м/с выше, чем в oбычных услoвиях.
Атмoсфернoе давление в разных тoчках местнoсти мoжет значительнo oтличаться oт давления на метеoстанции, в зависимoсти oт услoвий рельефа (при пoдъёме на 10 м давление пoнижается примернo на 1 мм рт.ст.).